Location: Waco, TX
(31.5480°N, 97.1670°W)
Time: 23:33:21
(UTC-06:00)

ISS - Pass Details

Date: 10 November 2018
Orbit: 401 x 409 km, 51.6° (Epoch: 21 November)

Event Time Altitude Azimuth Distance (km) Brightness Sun altitude
Rises 08:18:16 0° 305° (NW) 2,322 -0.6 15.6°
Reaches altitude 10° 08:20:27 10° 296° (WNW) 1,461 -1.6 16.0°
Maximum altitude 08:23:26 33° 230° (SW) 701 -2.6 16.5°
Drops below altitude 10° 08:26:26 10° 164° (SSE) 1,457 -0.1 17.1°
Sets 08:28:37 0° 154° (SSE) 2,314 1.1 17.5°
